Tillbaka till svenska Fidonet
English   Information   Debug  
FILM   0/18
FNEWS_PUBLISH   4178
FN_SYSOP   41525
FN_SYSOP_OLD1   71952
FTP_FIDO   0/2
FTSC_PUBLIC   0/13569
FUNNY   0/4886
GENEALOGY.EUR   0/71
GET_INFO   105
GOLDED   0/408
HAM   0/16052
HOLYSMOKE   0/6791
HOT_SITES   0/1
HTMLEDIT   0/71
HUB203   466
HUB_100   264
HUB_400   39
HUMOR   0/29
IC   0/2851
INTERNET   0/424
INTERUSER   0/3
IP_CONNECT   719
JAMNNTPD   0/233
JAMTLAND   0/47
KATTY_KORNER   0/41
LAN   0/16
LINUX-USER   0/19
LINUXHELP   0/1155
LINUX   0/22010
LINUX_BBS   0/957
mail   18.68
mail_fore_ok   249
MENSA   0/341
MODERATOR   0/102
MONTE   0/992
MOSCOW_OKLAHOMA   0/1245
MUFFIN   0/783
MUSIC   0/321
N203_STAT   898
N203_SYSCHAT   313
NET203   321
NET204   69
NET_DEV   0/10
NORD.ADMIN   0/101
NORD.CHAT   0/2572
NORD.FIDONET   189
NORD.HARDWARE   0/28
NORD.KULTUR   0/114
NORD.PROG   0/32
NORD.SOFTWARE   0/88
NORD.TEKNIK   0/58
NORD   0/453
OCCULT_CHAT   0/93
OS2BBS   0/787
OS2DOSBBS   0/580
OS2HW   0/42
OS2INET   0/37
OS2LAN   0/134
OS2PROG   0/36
OS2REXX   0/113
OS2USER-L   207
OS2   0/4784
OSDEBATE   0/18996
PASCAL   0/490
PERL   0/457
PHP   0/45
POINTS   0/405
POLITICS   0/29554
POL_INC   0/14731
PSION   103
R20_ADMIN   1117
R20_AMATORRADIO   0/2
R20_BEST_OF_FIDONET   13
R20_CHAT   0/893
R20_DEPP   0/3
R20_DEV   399
R20_ECHO2   1379
R20_ECHOPRES   0/35
R20_ESTAT   0/719
R20_FIDONETPROG...
...RAM.MYPOINT
  0/2
R20_FIDONETPROGRAM   0/22
R20_FIDONET   0/248
R20_FILEFIND   0/24
R20_FILEFOUND   0/22
R20_HIFI   0/3
R20_INFO2   2736
R20_INTERNET   0/12940
R20_INTRESSE   0/60
R20_INTR_KOM   0/99
R20_KANDIDAT.CHAT   42
R20_KANDIDAT   28
R20_KOM_DEV   112
R20_KONTROLL   0/13050
R20_KORSET   0/18
R20_LOKALTRAFIK   0/24
R20_MODERATOR   0/1852
R20_NC   76
R20_NET200   245
R20_NETWORK.OTH...
...ERNETS
  0/13
R20_OPERATIVSYS...
...TEM.LINUX
  0/44
R20_PROGRAMVAROR   0/1
R20_REC2NEC   534
R20_SFOSM   0/340
R20_SF   0/108
R20_SPRAK.ENGLISH   0/1
R20_SQUISH   107
R20_TEST   2
R20_WORST_OF_FIDONET   12
RAR   0/9
RA_MULTI   106
RA_UTIL   0/162
REGCON.EUR   0/2055
REGCON   0/13
SCIENCE   0/1206
SF   0/239
SHAREWARE_SUPPORT   0/5146
SHAREWRE   0/14
SIMPSONS   0/169
STATS_OLD1   0/2539.065
STATS_OLD2   0/2530
STATS_OLD3   0/2395.095
STATS_OLD4   0/1692.25
SURVIVOR   0/495
SYSOPS_CORNER   0/3
SYSOP   0/84
TAGLINES   0/112
TEAMOS2   0/4530
TECH   0/2617
TEST.444   0/105
TRAPDOOR   0/19
TREK   0/755
TUB   0/290
UFO   0/40
UNIX   0/1316
USA_EURLINK   0/102
USR_MODEMS   0/1
VATICAN   0/2740
VIETNAM_VETS   0/14
VIRUS   0/378
VIRUS_INFO   0/201
VISUAL_BASIC   0/473
WHITEHOUSE   0/5187
WIN2000   0/101
WIN32   0/30
WIN95   0/4276
WIN95_OLD1   0/70272
WINDOWS   0/1517
WWB_SYSOP   0/419
WWB_TECH   0/810
ZCC-PUBLIC   0/1
ZEC   4

 
4DOS   0/134
ABORTION   0/7
ALASKA_CHAT   0/506
ALLFIX_FILE   0/1313
ALLFIX_FILE_OLD1   0/7997
ALT_DOS   0/152
AMATEUR_RADIO   0/1039
AMIGASALE   0/14
AMIGA   0/331
AMIGA_INT   0/1
AMIGA_PROG   0/20
AMIGA_SYSOP   0/26
ANIME   0/15
ARGUS   0/924
ASCII_ART   0/340
ASIAN_LINK   0/651
ASTRONOMY   0/417
AUDIO   0/92
AUTOMOBILE_RACING   0/105
BABYLON5   0/17862
BAG   135
BATPOWER   0/361
BBBS.ENGLISH   0/382
BBSLAW   0/109
BBS_ADS   0/5290
BBS_INTERNET   0/507
BIBLE   0/3563
BINKD   0/1119
BINKLEY   0/215
BLUEWAVE   0/2173
CABLE_MODEMS   0/25
CBM   0/46
CDRECORD   0/66
CDROM   0/20
CLASSIC_COMPUTER   0/378
COMICS   0/15
CONSPRCY   0/899
COOKING   28146
COOKING_OLD1   0/24719
COOKING_OLD2   0/40862
COOKING_OLD3   0/37489
COOKING_OLD4   0/35496
COOKING_OLD5   9370
C_ECHO   0/189
C_PLUSPLUS   0/31
DIRTY_DOZEN   0/201
DOORGAMES   0/2006
DOS_INTERNET   0/196
duplikat   6000
ECHOLIST   0/18295
EC_SUPPORT   0/318
ELECTRONICS   0/359
ELEKTRONIK.GER   1534
ENET.LINGUISTIC   0/13
ENET.POLITICS   0/4
ENET.SOFT   0/11701
ENET.SYSOP   33794
ENET.TALKS   0/32
ENGLISH_TUTOR   0/2000
EVOLUTION   0/1335
FDECHO   0/217
FDN_ANNOUNCE   0/7068
FIDONEWS   23490
FIDONEWS_OLD1   0/49742
FIDONEWS_OLD2   0/35949
FIDONEWS_OLD3   0/30874
FIDONEWS_OLD4   0/37224
FIDO_SYSOP   12841
FIDO_UTIL   0/180
FILEFIND   0/209
FILEGATE   0/212
Möte HAM, 16052 texter
 lista första sista föregående nästa
Text 2614, 746 rader
Skriven 2008-11-13 23:00:20 av Amsat List (1:323/120.0)
Ärende: [keps]  orb08318.amsa
=============================
[keps]  orb08318.amsa

Return-Path: <keps-bounces@amsat.org>
X-Rcpt: craig.healy@chowda.com
X-UIDL: 1226634944.1754

SB KEPS @ AMSAT  $ORB08318.O
Orbital Elements  08318.OSCAR

HR AMSAT ORBITAL ELEMENTS FOR OSCAR SATELLITES
FROM WA5QGD FORT WORTH,TX November 13, 2008
Send Subscribe/unsubscribe to KEPS at 
http://www.amsat.org/mailman/listinfo/keps
BID: ORB08318.O
TO ALL RADIO AMATEURS BT

Satellite: AO-07
Catalog number: 07530
Epoch time:      08318.69126577
Element set:     326
Inclination:      101.4517 deg
RA of node:       345.1050 deg
Eccentricity:    0.0011811
Arg of perigee:   330.7597 deg
Mean anomaly:     029.2809 deg
Mean motion:   12.53574495 rev/day
Decay rate:       -2.7e-07 rev/day^2
Epoch rev:           55571
Checksum:              298

Satellite: AO-10
Catalog number: 14129
Epoch time:      08314.83214155
Element set:    0587
Inclination:      026.0363 deg
RA of node:       186.6926 deg
Eccentricity:    0.5959023
Arg of perigee:   172.1256 deg
Mean anomaly:     204.7554 deg
Mean motion:   02.05869528 rev/day
Decay rate:       -1.0e-07 rev/day^2
Epoch rev:           19110
Checksum:              295

Satellite: UO-11
Catalog number: 14781
Epoch time:      08318.22876649
Element set:     812
Inclination:      098.1393 deg
RA of node:       354.3632 deg
Eccentricity:    0.0008395
Arg of perigee:   318.3018 deg
Mean anomaly:     041.7533 deg
Mean motion:   14.79677007 rev/day
Decay rate:       2.59e-06 rev/day^2
Epoch rev:           32589
Checksum:              330

Satellite: RS-15
Catalog number: 23439
Epoch time:      08316.95150651
Element set:    0164
Inclination:      064.8154 deg
RA of node:       256.1023 deg
Eccentricity:    0.0145684
Arg of perigee:   094.1264 deg
Mean anomaly:     267.6324 deg
Mean motion:   11.27552649 rev/day
Decay rate:       -3.9e-07 rev/day^2
Epoch rev:           57162
Checksum:              306

Satellite: FO-29
Catalog number: 24278
Epoch time:      08316.87870910
Element set:     904
Inclination:      098.5773 deg
RA of node:       213.7672 deg
Eccentricity:    0.0350453
Arg of perigee:   193.0799 deg
Mean anomaly:     166.1074 deg
Mean motion:   13.52939547 rev/day
Decay rate:       -4.4e-07 rev/day^2
Epoch rev:           60436
Checksum:              342

Satellite: SO-33
Catalog number: 25509
Epoch time:      08317.79299660
Element set:     322
Inclination:      031.4335 deg
RA of node:       196.0934 deg
Eccentricity:    0.0355172
Arg of perigee:   246.5219 deg
Mean anomaly:     109.7683 deg
Mean motion:   14.28231382 rev/day
Decay rate:      -1.72e-06 rev/day^2
Epoch rev:           52487
Checksum:              319

Satellite: AO-40
Catalog number: 26609
Epoch time:      08318.43241246
Element set:     151
Inclination:      008.0927 deg
RA of node:       049.4587 deg
Eccentricity:    0.7937357
Arg of perigee:   144.1388 deg
Mean anomaly:     312.4982 deg
Mean motion:   01.25585962 rev/day
Decay rate:      -1.56e-06 rev/day^2
Epoch rev:            3691
Checksum:              327

Satellite: VO-52
Catalog number: 28650
Epoch time:      08317.79319430
Element set:      80
Inclination:      097.7731 deg
RA of node:       020.1869 deg
Eccentricity:    0.0027534
Arg of perigee:   018.3657 deg
Mean anomaly:     341.8538 deg
Mean motion:   14.81518619 rev/day
Decay rate:      -1.47e-06 rev/day^2
Epoch rev:           19060
Checksum:              317

Satellite: PO-63
Catalog number: 29712
Epoch time:      08318.74904193
Element set:     966
Inclination:      097.8591 deg
RA of node:       014.0001 deg
Eccentricity:    0.0013142
Arg of perigee:   255.1713 deg
Mean anomaly:     104.8047 deg
Mean motion:   14.80333406 rev/day
Decay rate:       5.66e-06 rev/day^2
Epoch rev:            9959
Checksum:              303

/EX
SB KEPS @ AMSAT  $ORB08318.D
Orbital Elements  08318.MICROS

HR AMSAT ORBITAL ELEMENTS FOR THE MICROSATS
FROM WA5QGD FORT WORTH,TX November 13, 2008
Send Subscribe/unsubscribe to KEPS at 
http://www.amsat.org/mailman/listinfo/keps
BID: ORB08318.D
TO ALL RADIO AMATEURS BT

Satellite: AO-16
Catalog number: 20439
Epoch time:      08318.47947188
Element set:     462
Inclination:      098.2506 deg
RA of node:       291.0584 deg
Eccentricity:    0.0011884
Arg of perigee:   091.6428 deg
Mean anomaly:     268.6121 deg
Mean motion:   14.31808121 rev/day
Decay rate:        3.0e-07 rev/day^2
Epoch rev:           98228
Checksum:              314

Satellite: LO-19
Catalog number: 20442
Epoch time:      08317.73349068
Element set:     386
Inclination:      098.2161 deg
RA of node:       298.4116 deg
Eccentricity:    0.0012908
Arg of perigee:   091.9420 deg
Mean anomaly:     268.3230 deg
Mean motion:   14.32046102 rev/day
Decay rate:       1.47e-06 rev/day^2
Epoch rev:           98233
Checksum:              295

Satellite: AO-27
Catalog number: 22825
Epoch time:      08317.82582759
Element set:     105
Inclination:      098.4064 deg
RA of node:       272.4251 deg
Eccentricity:    0.0008501
Arg of perigee:   176.4784 deg
Mean anomaly:     183.6452 deg
Mean motion:   14.29252251 rev/day
Decay rate:       1.73e-06 rev/day^2
Epoch rev:           78900
Checksum:              311

Satellite: IO-26
Catalog number: 22826
Epoch time:      08318.55391851
Element set:     820
Inclination:      098.3995 deg
RA of node:       273.9709 deg
Eccentricity:    0.0008903
Arg of perigee:   170.7824 deg
Mean anomaly:     189.3523 deg
Mean motion:   14.29501658 rev/day
Decay rate:        1.8e-07 rev/day^2
Epoch rev:           78920
Checksum:              342

